OK4PZ-5 Weather Reports


time (UTC)temp
C
wind
direction
speed
KPH
gust
KPH
rain 1hr
cm
rain 24hr
cm
rain mn
cm
humidity
%
barometer
mb
20260506134502 19 23 1.6 3.2 0.00 0.00 0.03 72 1007.0
20260506133002 19 122 1.6 6.4 0.13 0.00 0.03 64 1008.0
20260506131502 21 106 4.8 6.4 0.00 0.00 0.00 46 1007.0
20260506130002 22 222 4.8 16.1 0.00 0.00 0.00 44 1008.0
20260506124502 21 168 1.6 9.7 0.00 0.00 0.00 47 1008.0
20260506123002 22 74 3.2 4.8 0.00 0.00 0.00 44 1008.0
20260506121502 21 134 6.4 11.3 0.00 0.00 0.00 46 1009.0
20260506120002 21 207 0.0 4.8 0.00 0.00 0.00 45 1008.0
20260506114502 22 258 6.4 11.3 0.00 0.00 0.00 41 1009.0
20260506113002 21 224 1.6 6.4 0.00 0.00 0.00 42 1009.0
20260506111502 21 255 0.0 3.2 0.00 0.00 0.00 45 1009.0
20260506110002 22 235 0.0 6.4 0.00 0.00 0.00 43 1009.0
20260506104503 22 187 4.8 11.3 0.00 0.00 0.00 43 1009.0
20260506103003 21 54 0.0 1.6 0.00 0.00 0.00 47 1009.0
20260506101503 21 126 6.4 9.7 0.00 0.00 0.00 48 1010.0
20260506100002 21 17 1.6 3.2 0.00 0.00 0.00 48 1010.0
20260506094502 21 270 1.6 3.2 0.00 0.00 0.00 47 1010.0
20260506093002 20 257 1.6 6.4 0.00 0.00 0.00 51 1010.0
20260506091502 20 103 3.2 11.3 0.00 0.00 0.00 53 1010.0
20260506090001 19 265 3.2 9.7 0.00 0.00 0.00 55 1010.0
20260506084502 19 286 4.8 4.8 0.00 0.00 0.00 55 1010.0
20260506083003 19 230 4.8 6.4 0.00 0.00 0.00 56 1010.0
20260506081502 18 231 3.2 4.8 0.00 0.00 0.00 58 1010.0
20260506073002 18 226 3.2 6.4 0.00 0.00 0.00 63 1010.0
20260506071502 17 205 3.2 6.4 0.00 0.00 0.00 67 1010.0
20260506061502 14 221 1.6 3.2 0.00 0.00 0.00 82 1010.0
20260506044501 10 205 0.0 1.6 0.00 0.00 0.00 98 1010.0
20260506043002 10 209 0.0 0.0 0.00 0.00 0.00 99 1010.0
20260506041502 8 209 0.0 0.0 0.00 0.00 0.00 99 1010.0
20260506040003 8 212 0.0 0.0 0.00 0.00 0.00 99 1010.0
20260506034503 9 212 0.0 0.0 0.00 0.00 0.00 99 1010.0
20260506033003 9 212 0.0 0.0 0.00 0.00 0.00 98 1010.0
20260506031502 10 212 0.0 0.0 0.00 0.00 0.00 98 1009.0
20260506030002 10 212 0.0 0.0 0.00 0.00 0.00 98 1010.0
20260506024502 10 212 0.0 0.0 0.00 0.00 0.00 98 1010.0
20260506023002 11 223 0.0 0.0 0.00 0.00 0.00 97 1010.0
20260506021502 11 223 0.0 0.0 0.00 0.00 0.00 96 1010.0
20260506020002 11 219 0.0 1.6 0.00 0.00 0.00 96 1010.0
20260506014502 11 218 0.0 3.2 0.00 0.00 0.00 96 1010.0
20260506013001 11 251 0.0 0.0 0.00 0.00 0.00 96 1010.0
20260506011502 12 252 0.0 0.0 0.00 0.00 0.00 94 1010.0
20260506010002 12 252 1.6 1.6 0.00 0.00 0.00 94 1010.0
20260506004503 12 240 0.0 3.2 0.00 0.00 0.00 91 1010.0
20260506003002 13 279 1.6 4.8 0.00 0.00 0.00 90 1010.0
20260506001502 13 294 3.2 3.2 0.00 0.00 0.00 88 1009.0
20260506000002 13 292 0.0 6.4 0.00 0.00 0.00 87 1009.0
20260505234503 13 276 1.6 6.4 0.00 0.00 0.00 87 1009.0
20260505233002 14 293 4.8 9.7 0.00 0.00 0.00 84 1009.0
20260505231502 14 334 3.2 4.8 0.00 0.00 0.00 82 1009.0
20260505230002 14 292 3.2 4.8 0.00 0.00 0.00 82 1009.0
20260505224502 15 241 6.4 11.3 0.00 0.00 0.00 79 1009.0
20260505223002 15 234 4.8 6.4 0.00 0.00 0.00 74 1009.0
20260505221502 16 256 12.9 22.5 0.00 0.00 0.00 72 1009.0
20260505220002 16 227 3.2 12.9 0.00 0.00 0.00 71 1009.0
20260505214502 16 207 6.4 11.3 0.00 0.00 0.00 71 1009.0
20260505213002 16 305 8.0 17.7 0.00 0.00 0.00 71 1008.0
20260505211502 16 285 6.4 9.7 0.00 0.00 0.00 73 1008.0
20260505210002 16 232 4.8 6.4 0.00 0.00 0.00 74 1008.0
20260505204502 16 248 1.6 3.2 0.00 0.00 0.00 71 1008.0
20260505203002 16 208 1.6 1.6 0.00 0.00 0.00 66 1007.0
20260505201502 15 3 0.0 1.6 0.00 0.00 0.00 70 1007.0
20260505200002 16 3 0.0 1.6 0.00 0.00 0.00 66 1006.0
20260505194502 17 4 1.6 1.6 0.00 0.00 0.00 65 1006.0
20260505193002 17 33 0.0 3.2 0.00 0.00 0.00 63 1006.0
20260505191502 17 38 1.6 6.4 0.00 0.00 0.00 62 1006.0
20260505190003 17 33 3.2 6.4 0.00 0.00 0.00 61 1006.0
20260505184502 18 29 3.2 6.4 0.00 0.00 0.00 60 1006.0
20260505183002 18 96 3.2 6.4 0.00 0.00 0.00 58 1006.0
20260505181502 18 65 3.2 6.4 0.00 0.00 0.00 58 1006.0
20260505180002 19 41 3.2 4.8 0.00 0.00 0.00 57 1006.0
20260505174502 20 29 4.8 6.4 0.00 0.00 0.00 56 1006.0
20260505173002 20 39 3.2 9.7 0.00 0.00 0.00 54 1006.0
20260505171502 20 52 8.0 11.3 0.00 0.00 0.00 51 1006.0
20260505170002 20 31 6.4 9.7 0.00 0.00 0.00 53 1007.0
20260505164502 20 32 4.8 4.8 0.00 0.00 0.00 53 1007.0
20260505163002 20 0 3.2 6.4 0.00 0.00 0.00 54 1007.0
20260505161502 20 31 0.0 3.2 0.00 0.00 0.00 56 1007.0
20260505153002 22 293 6.4 9.7 0.00 0.00 0.00 47 1008.0
20260505151502 23 251 1.6 4.8 0.00 0.00 0.00 43 1008.0